Location: Trani
(41.2830°N, 16.4170°E)
Time: 17:37:54
(UTC+02:00)

ISS - Pass Details

Date: 15 May 2021
Orbit: 417 x 422 km, 51.6° (Epoch: 18 June)

Event Time Altitude Azimuth Distance (km) Brightness Sun altitude
Rises 03:40:22 0° 308° (NW) 2,374 0.0 -18.1°
Reaches altitude 10° 03:42:31 10° 313° (NW) 1,508 -0.9 -17.9°
Maximum altitude 03:45:50 52° 31° (NNE) 534 -2.9 -17.4°
Drops below altitude 10° 03:49:08 10° 109° (ESE) 1,503 -0.6 -17.0°
Sets 03:51:16 0° 115° (ESE) 2,365 0.3 -16.7°
